Old browser warning

Site look funky?  Your browser is either Internet Explorer (hit refresh (F5) several times due to a bug in Microsoft's code that we can't work around) or is 10 years old and standards-based layouts and styling confuse it.   Consider updating.  One excellent option is Mozilla Firefox, versions of which are available for Linux, Mac and Windows. Safari 1.0+ and IE 6.0+ are also supported.

Pit At Big Bend [ USA-CAL ]

Edit Gauge

Current Conditions

Reading of "n/a" = frozen gauge or gauge error.
Reading Trend Type Updated
too low 0.0 r.c./hr Status 09h42m
498 cfs 0 cfs/hr Flow 09h42m

Station Description

AW Gauge ID: 45208
Source: dream
Station: 046
Enabled yes
AW thanks Chris Shackleton and Dreamflows for this data. Dreamflows data should only be analyzed in the context of the Dreamflows site. Data is often calculated and/or approximated. Please see Chris's site for a complete description of how this data should and can be interpreted. Source Gauge's Page

Information

Flow

Gauge History

Times listed in GMT 24h, ET and PT hours provided for convenience Graphs in GMT. Readings of "n/a" constitute a frozen gauge or gauge error.
Reading Updated (GMT) Eastern Pacific Comment
498.00 01/15/2019 17:59:28 Jan 15 12:59 pm Jan 15 9:59 am
498.00 01/15/2019 12:58:40 Jan 15 07:58 am Jan 15 4:58 am
498.00 01/15/2019 09:59:28 Jan 15 04:59 am Jan 15 1:59 am
502.00 01/15/2019 00:00:00 Jan 14 07:00 pm Jan 14 4:00 pm
502.00 01/14/2019 20:58:40 Jan 14 03:58 pm Jan 14 12:58 pm
500.00 01/14/2019 19:58:56 Jan 14 02:58 pm Jan 14 11:58 am
505.00 01/14/2019 17:59:28 Jan 14 12:59 pm Jan 14 9:59 am
506.00 01/14/2019 13:58:24 Jan 14 08:58 am Jan 14 5:58 am
510.00 01/14/2019 08:59:44 Jan 14 03:59 am Jan 14 12:59 am
514.00 01/14/2019 00:00:00 Jan 13 07:00 pm Jan 13 4:00 pm
515.00 01/13/2019 20:58:40 Jan 13 03:58 pm Jan 13 12:58 pm
525.00 01/13/2019 19:58:56 Jan 13 02:58 pm Jan 13 11:58 am
514.00 01/13/2019 17:59:28 Jan 13 12:59 pm Jan 13 9:59 am
515.00 01/13/2019 14:58:08 Jan 13 09:58 am Jan 13 6:58 am
515.00 01/13/2019 11:58:56 Jan 13 06:58 am Jan 13 3:58 am
515.00 01/13/2019 09:59:28 Jan 13 04:59 am Jan 13 1:59 am
519.00 01/13/2019 00:59:44 Jan 12 07:59 pm Jan 12 4:59 pm
527.00 01/12/2019 21:58:24 Jan 12 04:58 pm Jan 12 1:58 pm
525.00 01/12/2019 19:58:56 Jan 12 02:58 pm Jan 12 11:58 am
524.00 01/12/2019 18:59:12 Jan 12 01:59 pm Jan 12 10:59 am
524.00 01/12/2019 16:00:00 Jan 12 11:00 am Jan 12 8:00 am
524.00 01/12/2019 12:58:40 Jan 12 07:58 am Jan 12 4:58 am
524.00 01/12/2019 09:59:28 Jan 12 04:59 am Jan 12 1:59 am
537.00 01/12/2019 00:59:44 Jan 11 07:59 pm Jan 11 4:59 pm
534.00 01/11/2019 21:58:24 Jan 11 04:58 pm Jan 11 1:58 pm
525.00 01/11/2019 19:58:56 Jan 11 02:58 pm Jan 11 11:58 am
540.00 01/11/2019 17:59:28 Jan 11 12:59 pm Jan 11 9:59 am
542.00 01/11/2019 14:58:08 Jan 11 09:58 am Jan 11 6:58 am
549.00 01/11/2019 11:58:56 Jan 11 06:58 am Jan 11 3:58 am
551.00 01/11/2019 08:59:44 Jan 11 03:59 am Jan 11 12:59 am
569.00 01/11/2019 00:00:00 Jan 10 07:00 pm Jan 10 4:00 pm
575.00 01/10/2019 19:58:56 Jan 10 02:58 pm Jan 10 11:58 am
579.00 01/10/2019 18:59:12 Jan 10 01:59 pm Jan 10 10:59 am
589.00 01/10/2019 16:00:00 Jan 10 11:00 am Jan 10 8:00 am
593.00 01/10/2019 12:58:40 Jan 10 07:58 am Jan 10 4:58 am
595.00 01/10/2019 10:59:12 Jan 10 05:59 am Jan 10 2:59 am
596.00 01/10/2019 08:00:00 Jan 10 03:00 am Jan 10 12:00 am
617.00 01/10/2019 02:59:12 Jan 9 09:59 pm Jan 9 6:59 pm
632.00 01/10/2019 00:00:00 Jan 9 07:00 pm Jan 9 4:00 pm
635.00 01/09/2019 20:58:40 Jan 9 03:58 pm Jan 9 12:58 pm
625.00 01/09/2019 19:58:56 Jan 9 02:58 pm Jan 9 11:58 am
653.00 01/09/2019 17:59:28 Jan 9 12:59 pm Jan 9 9:59 am
730.00 01/09/2019 14:58:08 Jan 9 09:58 am Jan 9 6:58 am
690.00 01/09/2019 11:58:56 Jan 9 06:58 am Jan 9 3:58 am
566.00 01/09/2019 08:59:44 Jan 9 03:59 am Jan 9 12:59 am
525.00 01/09/2019 01:59:28 Jan 8 08:59 pm Jan 8 5:59 pm
575.00 01/08/2019 22:58:08 Jan 8 05:58 pm Jan 8 2:58 pm
498.00 01/08/2019 19:58:56 Jan 8 02:58 pm Jan 8 11:58 am
498.00 01/08/2019 16:59:44 Jan 8 11:59 am Jan 8 8:59 am
498.00 01/08/2019 13:58:24 Jan 8 08:58 am Jan 8 5:58 am
498.00 01/08/2019 10:59:12 Jan 8 05:59 am Jan 8 2:59 am
498.00 01/08/2019 08:59:44 Jan 8 03:59 am Jan 8 12:59 am
502.00 01/08/2019 00:00:00 Jan 7 07:00 pm Jan 7 4:00 pm
496.00 01/07/2019 20:58:40 Jan 7 03:58 pm Jan 7 12:58 pm
490.00 01/07/2019 19:58:56 Jan 7 02:58 pm Jan 7 11:58 am
485.00 01/07/2019 17:59:28 Jan 7 12:59 pm Jan 7 9:59 am
489.00 01/07/2019 14:58:08 Jan 7 09:58 am Jan 7 6:58 am
509.00 01/06/2019 21:58:24 Jan 6 04:58 pm Jan 6 1:58 pm
500.00 01/06/2019 19:58:56 Jan 6 02:58 pm Jan 6 11:58 am
504.00 01/06/2019 18:59:12 Jan 6 01:59 pm Jan 6 10:59 am
494.00 01/06/2019 14:58:08 Jan 6 09:58 am Jan 6 6:58 am
490.00 01/06/2019 11:58:56 Jan 6 06:58 am Jan 6 3:58 am
502.00 01/06/2019 08:59:44 Jan 6 03:59 am Jan 6 12:59 am
481.00 01/06/2019 00:59:44 Jan 5 07:59 pm Jan 5 4:59 pm
477.00 01/05/2019 21:58:24 Jan 5 04:58 pm Jan 5 1:58 pm
477.00 01/05/2019 19:58:56 Jan 5 02:58 pm Jan 5 11:58 am
477.00 01/05/2019 16:59:44 Jan 5 11:59 am Jan 5 8:59 am
477.00 01/05/2019 13:58:24 Jan 5 08:58 am Jan 5 5:58 am
477.00 01/05/2019 11:58:56 Jan 5 06:58 am Jan 5 3:58 am
477.00 01/05/2019 08:59:44 Jan 5 03:59 am Jan 5 12:59 am
476.00 01/05/2019 00:00:00 Jan 4 07:00 pm Jan 4 4:00 pm
477.00 01/04/2019 20:58:40 Jan 4 03:58 pm Jan 4 12:58 pm
480.00 01/04/2019 19:58:56 Jan 4 02:58 pm Jan 4 11:58 am
473.00 01/04/2019 17:59:28 Jan 4 12:59 pm Jan 4 9:59 am
477.00 01/04/2019 13:58:24 Jan 4 08:58 am Jan 4 5:58 am
473.00 01/04/2019 10:59:12 Jan 4 05:59 am Jan 4 2:59 am
473.00 01/04/2019 08:00:00 Jan 4 03:00 am Jan 4 12:00 am
473.00 01/04/2019 01:59:28 Jan 3 08:59 pm Jan 3 5:59 pm
477.00 01/03/2019 22:58:08 Jan 3 05:58 pm Jan 3 2:58 pm
478.00 01/03/2019 19:58:56 Jan 3 02:58 pm Jan 3 11:58 am
477.00 01/03/2019 16:59:44 Jan 3 11:59 am Jan 3 8:59 am
473.00 01/03/2019 12:58:40 Jan 3 07:58 am Jan 3 4:58 am
474.00 01/03/2019 09:59:28 Jan 3 04:59 am Jan 3 1:59 am
477.00 01/03/2019 08:00:00 Jan 3 03:00 am Jan 3 12:00 am
477.00 01/03/2019 02:59:12 Jan 2 09:59 pm Jan 2 6:59 pm
476.00 01/03/2019 00:00:00 Jan 2 07:00 pm Jan 2 4:00 pm
477.00 01/02/2019 21:58:24 Jan 2 04:58 pm Jan 2 1:58 pm
478.00 01/02/2019 19:58:56 Jan 2 02:58 pm Jan 2 11:58 am
477.00 01/02/2019 16:59:44 Jan 2 11:59 am Jan 2 8:59 am
477.00 01/02/2019 14:58:08 Jan 2 09:58 am Jan 2 6:58 am
477.00 01/02/2019 11:58:56 Jan 2 06:58 am Jan 2 3:58 am
477.00 01/02/2019 09:59:28 Jan 2 04:59 am Jan 2 1:59 am
477.00 01/02/2019 08:00:00 Jan 2 03:00 am Jan 2 12:00 am
476.00 01/02/2019 01:59:28 Jan 1 08:59 pm Jan 1 5:59 pm
477.00 01/01/2019 22:58:08 Jan 1 05:58 pm Jan 1 2:58 pm
477.00 01/01/2019 20:58:40 Jan 1 03:58 pm Jan 1 12:58 pm
480.00 01/01/2019 19:58:56 Jan 1 02:58 pm Jan 1 11:58 am
476.00 01/01/2019 17:59:28 Jan 1 12:59 pm Jan 1 9:59 am
477.00 01/01/2019 16:00:00 Jan 1 11:00 am Jan 1 8:00 am
481.00 01/01/2019 01:59:28 Dec 31 08:59 pm Dec 31 5:59 pm
477.00 12/31/2018 22:58:08 Dec 31 05:58 pm Dec 31 2:58 pm
481.00 12/31/2018 19:58:56 Dec 31 02:58 pm Dec 31 11:58 am
481.00 12/31/2018 16:59:44 Dec 31 11:59 am Dec 31 8:59 am
482.00 12/31/2018 12:58:40 Dec 31 07:58 am Dec 31 4:58 am
481.00 12/31/2018 08:59:44 Dec 31 03:59 am Dec 31 12:59 am
480.00 12/31/2018 00:00:00 Dec 30 07:00 pm Dec 30 4:00 pm
481.00 12/30/2018 21:58:24 Dec 30 04:58 pm Dec 30 1:58 pm
480.00 12/30/2018 19:58:56 Dec 30 02:58 pm Dec 30 11:58 am
481.00 12/30/2018 18:59:12 Dec 30 01:59 pm Dec 30 10:59 am
481.00 12/30/2018 16:59:44 Dec 30 11:59 am Dec 30 8:59 am
477.00 12/30/2018 13:58:24 Dec 30 08:58 am Dec 30 5:58 am
477.00 12/30/2018 11:58:56 Dec 30 06:58 am Dec 30 3:58 am
477.00 12/30/2018 08:59:44 Dec 30 03:59 am Dec 30 12:59 am
481.00 12/30/2018 00:00:00 Dec 29 07:00 pm Dec 29 4:00 pm
483.00 12/29/2018 19:58:56 Dec 29 02:58 pm Dec 29 11:58 am
485.00 12/29/2018 16:59:44 Dec 29 11:59 am Dec 29 8:59 am
485.00 12/29/2018 13:58:24 Dec 29 08:58 am Dec 29 5:58 am
485.00 12/29/2018 11:58:56 Dec 29 06:58 am Dec 29 3:58 am
484.00 12/29/2018 09:59:28 Dec 29 04:59 am Dec 29 1:59 am
481.00 12/29/2018 02:59:12 Dec 28 09:59 pm Dec 28 6:59 pm
481.00 12/29/2018 00:59:44 Dec 28 07:59 pm Dec 28 4:59 pm
485.00 12/28/2018 21:58:24 Dec 28 04:58 pm Dec 28 1:58 pm
481.00 12/28/2018 19:58:56 Dec 28 02:58 pm Dec 28 11:58 am
481.00 12/28/2018 17:59:28 Dec 28 12:59 pm Dec 28 9:59 am
485.00 12/28/2018 14:58:08 Dec 28 09:58 am Dec 28 6:58 am
485.00 12/28/2018 12:58:40 Dec 28 07:58 am Dec 28 4:58 am
485.00 12/28/2018 10:59:12 Dec 28 05:59 am Dec 28 2:59 am
485.00 12/28/2018 08:59:44 Dec 28 03:59 am Dec 28 12:59 am
489.00 12/28/2018 01:59:28 Dec 27 08:59 pm Dec 27 5:59 pm
489.00 12/28/2018 00:00:00 Dec 27 07:00 pm Dec 27 4:00 pm
489.00 12/27/2018 20:58:40 Dec 27 03:58 pm Dec 27 12:58 pm
490.00 12/27/2018 19:58:56 Dec 27 02:58 pm Dec 27 11:58 am
489.00 12/27/2018 18:59:12 Dec 27 01:59 pm Dec 27 10:59 am
489.00 12/27/2018 16:59:44 Dec 27 11:59 am Dec 27 8:59 am
489.00 12/27/2018 13:58:24 Dec 27 08:58 am Dec 27 5:58 am
492.00 12/27/2018 11:58:56 Dec 27 06:58 am Dec 27 3:58 am
489.00 12/27/2018 08:59:44 Dec 27 03:59 am Dec 27 12:59 am
489.00 12/27/2018 01:59:28 Dec 26 08:59 pm Dec 26 5:59 pm
493.00 12/27/2018 00:00:00 Dec 26 07:00 pm Dec 26 4:00 pm
498.00 12/26/2018 20:58:40 Dec 26 03:58 pm Dec 26 12:58 pm
500.00 12/26/2018 19:58:56 Dec 26 02:58 pm Dec 26 11:58 am
482.00 12/26/2018 18:59:12 Dec 26 01:59 pm Dec 26 10:59 am
498.00 12/26/2018 16:00:00 Dec 26 11:00 am Dec 26 8:00 am
498.00 12/26/2018 12:58:40 Dec 26 07:58 am Dec 26 4:58 am
502.00 12/26/2018 10:59:12 Dec 26 05:59 am Dec 26 2:59 am
502.00 12/26/2018 08:59:44 Dec 26 03:59 am Dec 26 12:59 am
502.00 12/26/2018 01:59:28 Dec 25 08:59 pm Dec 25 5:59 pm
502.00 12/26/2018 00:00:00 Dec 25 07:00 pm Dec 25 4:00 pm
502.00 12/25/2018 21:58:24 Dec 25 04:58 pm Dec 25 1:58 pm
506.00 12/25/2018 19:58:56 Dec 25 02:58 pm Dec 25 11:58 am
506.00 12/25/2018 17:59:28 Dec 25 12:59 pm Dec 25 9:59 am
508.00 12/25/2018 16:00:00 Dec 25 11:00 am Dec 25 8:00 am
511.00 12/25/2018 12:58:40 Dec 25 07:58 am Dec 25 4:58 am
511.00 12/25/2018 10:59:12 Dec 25 05:59 am Dec 25 2:59 am
516.00 12/25/2018 08:59:44 Dec 25 03:59 am Dec 25 12:59 am
528.00 12/25/2018 02:59:12 Dec 24 09:59 pm Dec 24 6:59 pm
550.00 12/25/2018 00:00:00 Dec 24 07:00 pm Dec 24 4:00 pm
542.00 12/24/2018 21:58:24 Dec 24 04:58 pm Dec 24 1:58 pm
527.00 12/24/2018 19:58:56 Dec 24 02:58 pm Dec 24 11:58 am
513.00 12/24/2018 17:59:28 Dec 24 12:59 pm Dec 24 9:59 am
501.00 12/24/2018 14:58:08 Dec 24 09:58 am Dec 24 6:58 am
501.00 12/24/2018 11:58:56 Dec 24 06:58 am Dec 24 3:58 am
494.00 12/24/2018 09:59:28 Dec 24 04:59 am Dec 24 1:59 am
498.00 12/24/2018 08:00:00 Dec 24 03:00 am Dec 24 12:00 am
498.00 12/24/2018 01:59:28 Dec 23 08:59 pm Dec 23 5:59 pm
502.00 12/23/2018 22:58:08 Dec 23 05:58 pm Dec 23 2:58 pm
504.00 12/23/2018 20:58:40 Dec 23 03:58 pm Dec 23 12:58 pm
500.00 12/23/2018 19:58:56 Dec 23 02:58 pm Dec 23 11:58 am
498.00 12/23/2018 18:59:12 Dec 23 01:59 pm Dec 23 10:59 am
502.00 12/23/2018 16:59:44 Dec 23 11:59 am Dec 23 8:59 am
502.00 12/23/2018 14:58:08 Dec 23 09:58 am Dec 23 6:58 am
502.00 12/23/2018 12:58:40 Dec 23 07:58 am Dec 23 4:58 am
502.00 12/23/2018 10:59:12 Dec 23 05:59 am Dec 23 2:59 am
503.00 12/23/2018 08:00:00 Dec 23 03:00 am Dec 23 12:00 am
506.00 12/23/2018 01:59:28 Dec 22 08:59 pm Dec 22 5:59 pm
506.00 12/23/2018 00:59:44 Dec 22 07:59 pm Dec 22 4:59 pm
503.00 12/22/2018 22:58:08 Dec 22 05:58 pm Dec 22 2:58 pm
506.00 12/22/2018 20:58:40 Dec 22 03:58 pm Dec 22 12:58 pm
500.00 12/22/2018 19:58:56 Dec 22 02:58 pm Dec 22 11:58 am
506.00 12/22/2018 18:59:12 Dec 22 01:59 pm Dec 22 10:59 am
506.00 12/22/2018 16:59:44 Dec 22 11:59 am Dec 22 8:59 am
506.00 12/22/2018 14:58:08 Dec 22 09:58 am Dec 22 6:58 am
504.00 12/22/2018 12:58:40 Dec 22 07:58 am Dec 22 4:58 am
508.00 12/22/2018 10:59:12 Dec 22 05:59 am Dec 22 2:59 am
511.00 12/22/2018 08:59:44 Dec 22 03:59 am Dec 22 12:59 am
515.00 12/22/2018 01:59:28 Dec 21 08:59 pm Dec 21 5:59 pm
516.00 12/22/2018 00:59:44 Dec 21 07:59 pm Dec 21 4:59 pm
519.00 12/21/2018 22:58:08 Dec 21 05:58 pm Dec 21 2:58 pm
519.00 12/21/2018 21:58:24 Dec 21 04:58 pm Dec 21 1:58 pm
528.00 12/21/2018 19:58:56 Dec 21 02:58 pm Dec 21 11:58 am
527.00 12/21/2018 18:59:12 Dec 21 01:59 pm Dec 21 10:59 am
528.00 12/21/2018 16:59:44 Dec 21 11:59 am Dec 21 8:59 am
531.00 12/21/2018 14:58:08 Dec 21 09:58 am Dec 21 6:58 am
534.00 12/21/2018 13:58:24 Dec 21 08:58 am Dec 21 5:58 am
542.00 12/21/2018 11:58:56 Dec 21 06:58 am Dec 21 3:58 am
537.00 12/21/2018 09:59:28 Dec 21 04:59 am Dec 21 1:59 am
533.00 12/21/2018 08:00:00 Dec 21 03:00 am Dec 21 12:00 am
518.00 12/21/2018 01:59:28 Dec 20 08:59 pm Dec 20 5:59 pm
506.00 12/21/2018 00:00:00 Dec 20 07:00 pm Dec 20 4:00 pm
504.00 12/20/2018 22:58:08 Dec 20 05:58 pm Dec 20 2:58 pm
506.00 12/20/2018 20:58:40 Dec 20 03:58 pm Dec 20 12:58 pm
506.00 12/20/2018 19:58:56 Dec 20 02:58 pm Dec 20 11:58 am
511.00 12/20/2018 17:59:28 Dec 20 12:59 pm Dec 20 9:59 am
511.00 12/20/2018 16:59:44 Dec 20 11:59 am Dec 20 8:59 am
511.00 12/20/2018 14:58:08 Dec 20 09:58 am Dec 20 6:58 am
513.00 12/20/2018 13:58:24 Dec 20 08:58 am Dec 20 5:58 am
515.00 12/20/2018 12:58:40 Dec 20 07:58 am Dec 20 4:58 am
511.00 12/20/2018 10:59:12 Dec 20 05:59 am Dec 20 2:59 am
511.00 12/20/2018 09:59:28 Dec 20 04:59 am Dec 20 1:59 am
515.00 12/20/2018 08:00:00 Dec 20 03:00 am Dec 20 12:00 am
519.00 12/20/2018 02:59:12 Dec 19 09:59 pm Dec 19 6:59 pm
522.00 12/20/2018 01:59:28 Dec 19 08:59 pm Dec 19 5:59 pm
524.00 12/20/2018 00:59:44 Dec 19 07:59 pm Dec 19 4:59 pm
524.00 12/20/2018 00:00:00 Dec 19 07:00 pm Dec 19 4:00 pm
525.00 12/19/2018 22:58:08 Dec 19 05:58 pm Dec 19 2:58 pm
526.00 12/19/2018 21:58:24 Dec 19 04:58 pm Dec 19 1:58 pm
528.00 12/19/2018 19:58:56 Dec 19 02:58 pm Dec 19 11:58 am
533.00 12/19/2018 17:59:28 Dec 19 12:59 pm Dec 19 9:59 am
533.00 12/19/2018 16:59:44 Dec 19 11:59 am Dec 19 8:59 am
537.00 12/19/2018 14:58:08 Dec 19 09:58 am Dec 19 6:58 am
537.00 12/19/2018 12:58:40 Dec 19 07:58 am Dec 19 4:58 am
533.00 12/19/2018 11:58:56 Dec 19 06:58 am Dec 19 3:58 am
538.00 12/19/2018 09:59:28 Dec 19 04:59 am Dec 19 1:59 am
542.00 12/19/2018 08:59:44 Dec 19 03:59 am Dec 19 12:59 am
553.00 12/19/2018 02:59:12 Dec 18 09:59 pm Dec 18 6:59 pm
547.00 12/19/2018 01:59:28 Dec 18 08:59 pm Dec 18 5:59 pm
543.00 12/19/2018 00:59:44 Dec 18 07:59 pm Dec 18 4:59 pm
546.00 12/19/2018 00:00:00 Dec 18 07:00 pm Dec 18 4:00 pm
536.00 12/18/2018 21:58:24 Dec 18 04:58 pm Dec 18 1:58 pm
532.00 12/18/2018 20:58:40 Dec 18 03:58 pm Dec 18 12:58 pm
528.00 12/18/2018 19:58:56 Dec 18 02:58 pm Dec 18 11:58 am
524.00 12/18/2018 17:59:28 Dec 18 12:59 pm Dec 18 9:59 am
524.00 12/18/2018 16:59:44 Dec 18 11:59 am Dec 18 8:59 am
524.00 12/18/2018 16:00:00 Dec 18 11:00 am Dec 18 8:00 am
528.00 12/18/2018 14:58:08 Dec 18 09:58 am Dec 18 6:58 am
528.00 12/18/2018 13:58:24 Dec 18 08:58 am Dec 18 5:58 am
530.00 12/18/2018 12:58:40 Dec 18 07:58 am Dec 18 4:58 am
533.00 12/18/2018 11:58:56 Dec 18 06:58 am Dec 18 3:58 am
549.00 12/18/2018 10:59:12 Dec 18 05:59 am Dec 18 2:59 am
624.00 12/18/2018 09:59:28 Dec 18 04:59 am Dec 18 1:59 am
683.00 12/18/2018 08:59:44 Dec 18 03:59 am Dec 18 12:59 am
683.00 12/18/2018 08:00:00 Dec 18 03:00 am Dec 18 12:00 am
665.00 12/18/2018 02:59:12 Dec 17 09:59 pm Dec 17 6:59 pm
563.00 12/18/2018 01:59:28 Dec 17 08:59 pm Dec 17 5:59 pm
546.00 12/18/2018 00:59:44 Dec 17 07:59 pm Dec 17 4:59 pm
546.00 12/18/2018 00:00:00 Dec 17 07:00 pm Dec 17 4:00 pm
550.00 12/17/2018 22:58:08 Dec 17 05:58 pm Dec 17 2:58 pm
557.00 12/17/2018 20:58:40 Dec 17 03:58 pm Dec 17 12:58 pm
566.00 12/17/2018 19:58:56 Dec 17 02:58 pm Dec 17 11:58 am
575.00 12/17/2018 18:59:12 Dec 17 01:59 pm Dec 17 10:59 am
579.00 12/17/2018 17:59:28 Dec 17 12:59 pm Dec 17 9:59 am
586.00 12/17/2018 16:00:00 Dec 17 11:00 am Dec 17 8:00 am
592.00 12/17/2018 14:58:08 Dec 17 09:58 am Dec 17 6:58 am
603.00 12/17/2018 13:58:24 Dec 17 08:58 am Dec 17 5:58 am
620.00 12/17/2018 12:58:40 Dec 17 07:58 am Dec 17 4:58 am
636.00 12/17/2018 11:58:56 Dec 17 06:58 am Dec 17 3:58 am
647.00 12/17/2018 10:59:12 Dec 17 05:59 am Dec 17 2:59 am
666.00 12/17/2018 09:59:28 Dec 17 04:59 am Dec 17 1:59 am
687.00 12/17/2018 08:59:44 Dec 17 03:59 am Dec 17 12:59 am
674.00 12/17/2018 08:00:00 Dec 17 03:00 am Dec 17 12:00 am

Status

Gauge History

Times listed in GMT 24h, ET and PT hours provided for convenience Graphs in GMT. Readings of "n/a" constitute a frozen gauge or gauge error.
Reading Updated (GMT) Eastern Pacific Comment
too low 01/15/2019 17:59:28 Jan 15 12:59 pm Jan 15 9:59 am
too low 01/15/2019 12:58:40 Jan 15 07:58 am Jan 15 4:58 am
too low 01/15/2019 09:59:28 Jan 15 04:59 am Jan 15 1:59 am
too low 01/15/2019 00:00:00 Jan 14 07:00 pm Jan 14 4:00 pm
too low 01/14/2019 20:58:40 Jan 14 03:58 pm Jan 14 12:58 pm
too low 01/14/2019 17:59:28 Jan 14 12:59 pm Jan 14 9:59 am
too low 01/14/2019 13:58:24 Jan 14 08:58 am Jan 14 5:58 am
too low 01/14/2019 08:59:44 Jan 14 03:59 am Jan 14 12:59 am
too low 01/14/2019 00:00:00 Jan 13 07:00 pm Jan 13 4:00 pm
too low 01/13/2019 20:58:40 Jan 13 03:58 pm Jan 13 12:58 pm
too low 01/13/2019 17:59:28 Jan 13 12:59 pm Jan 13 9:59 am
too low 01/13/2019 14:58:08 Jan 13 09:58 am Jan 13 6:58 am
too low 01/13/2019 11:58:56 Jan 13 06:58 am Jan 13 3:58 am
too low 01/13/2019 09:59:28 Jan 13 04:59 am Jan 13 1:59 am
too low 01/13/2019 00:59:44 Jan 12 07:59 pm Jan 12 4:59 pm
too low 01/12/2019 21:58:24 Jan 12 04:58 pm Jan 12 1:58 pm
too low 01/12/2019 18:59:12 Jan 12 01:59 pm Jan 12 10:59 am
too low 01/12/2019 16:00:00 Jan 12 11:00 am Jan 12 8:00 am
too low 01/12/2019 12:58:40 Jan 12 07:58 am Jan 12 4:58 am
too low 01/12/2019 09:59:28 Jan 12 04:59 am Jan 12 1:59 am
too low 01/12/2019 00:59:44 Jan 11 07:59 pm Jan 11 4:59 pm
too low 01/11/2019 21:58:24 Jan 11 04:58 pm Jan 11 1:58 pm
too low 01/11/2019 17:59:28 Jan 11 12:59 pm Jan 11 9:59 am
too low 01/11/2019 14:58:08 Jan 11 09:58 am Jan 11 6:58 am
too low 01/11/2019 11:58:56 Jan 11 06:58 am Jan 11 3:58 am
too low 01/11/2019 08:59:44 Jan 11 03:59 am Jan 11 12:59 am
too low 01/10/2019 18:59:12 Jan 10 01:59 pm Jan 10 10:59 am
too low 01/10/2019 16:00:00 Jan 10 11:00 am Jan 10 8:00 am
too low 01/10/2019 12:58:40 Jan 10 07:58 am Jan 10 4:58 am
too low 01/10/2019 10:59:12 Jan 10 05:59 am Jan 10 2:59 am
too low 01/10/2019 08:00:00 Jan 10 03:00 am Jan 10 12:00 am
too low 01/10/2019 02:59:12 Jan 9 09:59 pm Jan 9 6:59 pm
too low 01/10/2019 00:00:00 Jan 9 07:00 pm Jan 9 4:00 pm
too low 01/09/2019 20:58:40 Jan 9 03:58 pm Jan 9 12:58 pm
too low 01/09/2019 17:59:28 Jan 9 12:59 pm Jan 9 9:59 am
too low 01/09/2019 14:58:08 Jan 9 09:58 am Jan 9 6:58 am
too low 01/09/2019 11:58:56 Jan 9 06:58 am Jan 9 3:58 am
too low 01/09/2019 08:59:44 Jan 9 03:59 am Jan 9 12:59 am
too low 01/09/2019 01:59:28 Jan 8 08:59 pm Jan 8 5:59 pm
too low 01/08/2019 22:58:08 Jan 8 05:58 pm Jan 8 2:58 pm
too low 01/08/2019 19:58:56 Jan 8 02:58 pm Jan 8 11:58 am
too low 01/08/2019 16:59:44 Jan 8 11:59 am Jan 8 8:59 am
too low 01/08/2019 13:58:24 Jan 8 08:58 am Jan 8 5:58 am
too low 01/08/2019 10:59:12 Jan 8 05:59 am Jan 8 2:59 am
too low 01/08/2019 08:59:44 Jan 8 03:59 am Jan 8 12:59 am
too low 01/08/2019 00:00:00 Jan 7 07:00 pm Jan 7 4:00 pm
too low 01/07/2019 20:58:40 Jan 7 03:58 pm Jan 7 12:58 pm
too low 01/07/2019 17:59:28 Jan 7 12:59 pm Jan 7 9:59 am
too low 01/07/2019 14:58:08 Jan 7 09:58 am Jan 7 6:58 am
too low 01/06/2019 21:58:24 Jan 6 04:58 pm Jan 6 1:58 pm
too low 01/06/2019 18:59:12 Jan 6 01:59 pm Jan 6 10:59 am
too low 01/06/2019 14:58:08 Jan 6 09:58 am Jan 6 6:58 am
too low 01/06/2019 08:59:44 Jan 6 03:59 am Jan 6 12:59 am
too low 01/06/2019 00:59:44 Jan 5 07:59 pm Jan 5 4:59 pm
too low 01/05/2019 21:58:24 Jan 5 04:58 pm Jan 5 1:58 pm
too low 01/05/2019 19:58:56 Jan 5 02:58 pm Jan 5 11:58 am
too low 01/05/2019 16:59:44 Jan 5 11:59 am Jan 5 8:59 am
too low 01/05/2019 13:58:24 Jan 5 08:58 am Jan 5 5:58 am
too low 01/05/2019 11:58:56 Jan 5 06:58 am Jan 5 3:58 am
too low 01/05/2019 08:59:44 Jan 5 03:59 am Jan 5 12:59 am
too low 01/05/2019 00:00:00 Jan 4 07:00 pm Jan 4 4:00 pm
too low 01/04/2019 20:58:40 Jan 4 03:58 pm Jan 4 12:58 pm
too low 01/04/2019 19:58:56 Jan 4 02:58 pm Jan 4 11:58 am
too low 01/04/2019 17:59:28 Jan 4 12:59 pm Jan 4 9:59 am
too low 01/04/2019 13:58:24 Jan 4 08:58 am Jan 4 5:58 am
too low 01/04/2019 10:59:12 Jan 4 05:59 am Jan 4 2:59 am
too low 01/04/2019 08:00:00 Jan 4 03:00 am Jan 4 12:00 am
too low 01/04/2019 01:59:28 Jan 3 08:59 pm Jan 3 5:59 pm
too low 01/03/2019 22:58:08 Jan 3 05:58 pm Jan 3 2:58 pm
too low 01/03/2019 19:58:56 Jan 3 02:58 pm Jan 3 11:58 am
too low 01/03/2019 16:59:44 Jan 3 11:59 am Jan 3 8:59 am
too low 01/03/2019 12:58:40 Jan 3 07:58 am Jan 3 4:58 am
too low 01/03/2019 09:59:28 Jan 3 04:59 am Jan 3 1:59 am
too low 01/03/2019 08:00:00 Jan 3 03:00 am Jan 3 12:00 am
too low 01/03/2019 02:59:12 Jan 2 09:59 pm Jan 2 6:59 pm
too low 01/03/2019 00:00:00 Jan 2 07:00 pm Jan 2 4:00 pm
too low 01/02/2019 21:58:24 Jan 2 04:58 pm Jan 2 1:58 pm
too low 01/02/2019 19:58:56 Jan 2 02:58 pm Jan 2 11:58 am
too low 01/02/2019 16:59:44 Jan 2 11:59 am Jan 2 8:59 am
too low 01/02/2019 14:58:08 Jan 2 09:58 am Jan 2 6:58 am
too low 01/02/2019 11:58:56 Jan 2 06:58 am Jan 2 3:58 am
too low 01/02/2019 09:59:28 Jan 2 04:59 am Jan 2 1:59 am
too low 01/02/2019 08:00:00 Jan 2 03:00 am Jan 2 12:00 am
too low 01/02/2019 01:59:28 Jan 1 08:59 pm Jan 1 5:59 pm
too low 01/01/2019 22:58:08 Jan 1 05:58 pm Jan 1 2:58 pm
too low 01/01/2019 20:58:40 Jan 1 03:58 pm Jan 1 12:58 pm
too low 01/01/2019 19:58:56 Jan 1 02:58 pm Jan 1 11:58 am
too low 01/01/2019 17:59:28 Jan 1 12:59 pm Jan 1 9:59 am
too low 01/01/2019 16:00:00 Jan 1 11:00 am Jan 1 8:00 am
too low 01/01/2019 01:59:28 Dec 31 08:59 pm Dec 31 5:59 pm
too low 12/31/2018 22:58:08 Dec 31 05:58 pm Dec 31 2:58 pm
too low 12/31/2018 19:58:56 Dec 31 02:58 pm Dec 31 11:58 am
too low 12/31/2018 16:59:44 Dec 31 11:59 am Dec 31 8:59 am
too low 12/31/2018 12:58:40 Dec 31 07:58 am Dec 31 4:58 am
too low 12/31/2018 08:59:44 Dec 31 03:59 am Dec 31 12:59 am
too low 12/31/2018 00:00:00 Dec 30 07:00 pm Dec 30 4:00 pm
too low 12/30/2018 21:58:24 Dec 30 04:58 pm Dec 30 1:58 pm
too low 12/30/2018 19:58:56 Dec 30 02:58 pm Dec 30 11:58 am
too low 12/30/2018 18:59:12 Dec 30 01:59 pm Dec 30 10:59 am
too low 12/30/2018 16:59:44 Dec 30 11:59 am Dec 30 8:59 am
too low 12/30/2018 13:58:24 Dec 30 08:58 am Dec 30 5:58 am
too low 12/30/2018 11:58:56 Dec 30 06:58 am Dec 30 3:58 am
too low 12/30/2018 08:59:44 Dec 30 03:59 am Dec 30 12:59 am
too low 12/30/2018 00:00:00 Dec 29 07:00 pm Dec 29 4:00 pm
too low 12/29/2018 19:58:56 Dec 29 02:58 pm Dec 29 11:58 am
too low 12/29/2018 16:59:44 Dec 29 11:59 am Dec 29 8:59 am
too low 12/29/2018 13:58:24 Dec 29 08:58 am Dec 29 5:58 am
too low 12/29/2018 11:58:56 Dec 29 06:58 am Dec 29 3:58 am
too low 12/29/2018 09:59:28 Dec 29 04:59 am Dec 29 1:59 am
too low 12/29/2018 02:59:12 Dec 28 09:59 pm Dec 28 6:59 pm
too low 12/29/2018 00:59:44 Dec 28 07:59 pm Dec 28 4:59 pm
too low 12/28/2018 21:58:24 Dec 28 04:58 pm Dec 28 1:58 pm
too low 12/28/2018 19:58:56 Dec 28 02:58 pm Dec 28 11:58 am
too low 12/28/2018 17:59:28 Dec 28 12:59 pm Dec 28 9:59 am
too low 12/28/2018 14:58:08 Dec 28 09:58 am Dec 28 6:58 am
too low 12/28/2018 12:58:40 Dec 28 07:58 am Dec 28 4:58 am
too low 12/28/2018 10:59:12 Dec 28 05:59 am Dec 28 2:59 am
too low 12/28/2018 08:59:44 Dec 28 03:59 am Dec 28 12:59 am
too low 12/28/2018 01:59:28 Dec 27 08:59 pm Dec 27 5:59 pm
too low 12/28/2018 00:00:00 Dec 27 07:00 pm Dec 27 4:00 pm
too low 12/27/2018 20:58:40 Dec 27 03:58 pm Dec 27 12:58 pm
too low 12/27/2018 18:59:12 Dec 27 01:59 pm Dec 27 10:59 am
too low 12/27/2018 16:59:44 Dec 27 11:59 am Dec 27 8:59 am
too low 12/27/2018 13:58:24 Dec 27 08:58 am Dec 27 5:58 am
too low 12/27/2018 11:58:56 Dec 27 06:58 am Dec 27 3:58 am
too low 12/27/2018 08:59:44 Dec 27 03:59 am Dec 27 12:59 am
too low 12/27/2018 01:59:28 Dec 26 08:59 pm Dec 26 5:59 pm
too low 12/27/2018 00:00:00 Dec 26 07:00 pm Dec 26 4:00 pm
too low 12/26/2018 20:58:40 Dec 26 03:58 pm Dec 26 12:58 pm
too low 12/26/2018 19:58:56 Dec 26 02:58 pm Dec 26 11:58 am
too low 12/26/2018 18:59:12 Dec 26 01:59 pm Dec 26 10:59 am
too low 12/26/2018 16:00:00 Dec 26 11:00 am Dec 26 8:00 am
too low 12/26/2018 12:58:40 Dec 26 07:58 am Dec 26 4:58 am
too low 12/26/2018 10:59:12 Dec 26 05:59 am Dec 26 2:59 am
too low 12/26/2018 08:59:44 Dec 26 03:59 am Dec 26 12:59 am
too low 12/26/2018 01:59:28 Dec 25 08:59 pm Dec 25 5:59 pm
too low 12/26/2018 00:00:00 Dec 25 07:00 pm Dec 25 4:00 pm
too low 12/25/2018 21:58:24 Dec 25 04:58 pm Dec 25 1:58 pm
too low 12/25/2018 19:58:56 Dec 25 02:58 pm Dec 25 11:58 am
too low 12/25/2018 17:59:28 Dec 25 12:59 pm Dec 25 9:59 am
too low 12/25/2018 16:00:00 Dec 25 11:00 am Dec 25 8:00 am
too low 12/25/2018 12:58:40 Dec 25 07:58 am Dec 25 4:58 am
too low 12/25/2018 10:59:12 Dec 25 05:59 am Dec 25 2:59 am
too low 12/25/2018 08:59:44 Dec 25 03:59 am Dec 25 12:59 am
too low 12/25/2018 02:59:12 Dec 24 09:59 pm Dec 24 6:59 pm
too low 12/25/2018 00:00:00 Dec 24 07:00 pm Dec 24 4:00 pm
too low 12/24/2018 21:58:24 Dec 24 04:58 pm Dec 24 1:58 pm
too low 12/24/2018 19:58:56 Dec 24 02:58 pm Dec 24 11:58 am
too low 12/24/2018 17:59:28 Dec 24 12:59 pm Dec 24 9:59 am
too low 12/24/2018 14:58:08 Dec 24 09:58 am Dec 24 6:58 am
too low 12/24/2018 11:58:56 Dec 24 06:58 am Dec 24 3:58 am
too low 12/24/2018 09:59:28 Dec 24 04:59 am Dec 24 1:59 am
too low 12/24/2018 08:00:00 Dec 24 03:00 am Dec 24 12:00 am
too low 12/24/2018 01:59:28 Dec 23 08:59 pm Dec 23 5:59 pm
too low 12/23/2018 22:58:08 Dec 23 05:58 pm Dec 23 2:58 pm
too low 12/23/2018 20:58:40 Dec 23 03:58 pm Dec 23 12:58 pm
too low 12/23/2018 19:58:56 Dec 23 02:58 pm Dec 23 11:58 am
too low 12/23/2018 18:59:12 Dec 23 01:59 pm Dec 23 10:59 am
too low 12/23/2018 16:59:44 Dec 23 11:59 am Dec 23 8:59 am
too low 12/23/2018 14:58:08 Dec 23 09:58 am Dec 23 6:58 am
too low 12/23/2018 12:58:40 Dec 23 07:58 am Dec 23 4:58 am
too low 12/23/2018 10:59:12 Dec 23 05:59 am Dec 23 2:59 am
too low 12/23/2018 08:00:00 Dec 23 03:00 am Dec 23 12:00 am
too low 12/23/2018 01:59:28 Dec 22 08:59 pm Dec 22 5:59 pm
too low 12/23/2018 00:59:44 Dec 22 07:59 pm Dec 22 4:59 pm
too low 12/22/2018 22:58:08 Dec 22 05:58 pm Dec 22 2:58 pm
too low 12/22/2018 20:58:40 Dec 22 03:58 pm Dec 22 12:58 pm
too low 12/22/2018 18:59:12 Dec 22 01:59 pm Dec 22 10:59 am
too low 12/22/2018 16:59:44 Dec 22 11:59 am Dec 22 8:59 am
too low 12/22/2018 14:58:08 Dec 22 09:58 am Dec 22 6:58 am
too low 12/22/2018 12:58:40 Dec 22 07:58 am Dec 22 4:58 am
too low 12/22/2018 10:59:12 Dec 22 05:59 am Dec 22 2:59 am
too low 12/22/2018 08:59:44 Dec 22 03:59 am Dec 22 12:59 am
too low 12/22/2018 01:59:28 Dec 21 08:59 pm Dec 21 5:59 pm
too low 12/22/2018 00:59:44 Dec 21 07:59 pm Dec 21 4:59 pm
too low 12/21/2018 22:58:08 Dec 21 05:58 pm Dec 21 2:58 pm
too low 12/21/2018 21:58:24 Dec 21 04:58 pm Dec 21 1:58 pm
too low 12/21/2018 19:58:56 Dec 21 02:58 pm Dec 21 11:58 am
too low 12/21/2018 18:59:12 Dec 21 01:59 pm Dec 21 10:59 am
too low 12/21/2018 16:59:44 Dec 21 11:59 am Dec 21 8:59 am
too low 12/21/2018 14:58:08 Dec 21 09:58 am Dec 21 6:58 am
too low 12/21/2018 13:58:24 Dec 21 08:58 am Dec 21 5:58 am
too low 12/21/2018 11:58:56 Dec 21 06:58 am Dec 21 3:58 am
too low 12/21/2018 09:59:28 Dec 21 04:59 am Dec 21 1:59 am
too low 12/21/2018 08:00:00 Dec 21 03:00 am Dec 21 12:00 am
too low 12/21/2018 01:59:28 Dec 20 08:59 pm Dec 20 5:59 pm
too low 12/21/2018 00:00:00 Dec 20 07:00 pm Dec 20 4:00 pm
too low 12/20/2018 22:58:08 Dec 20 05:58 pm Dec 20 2:58 pm
too low 12/20/2018 20:58:40 Dec 20 03:58 pm Dec 20 12:58 pm
too low 12/20/2018 19:58:56 Dec 20 02:58 pm Dec 20 11:58 am
too low 12/20/2018 17:59:28 Dec 20 12:59 pm Dec 20 9:59 am
too low 12/20/2018 16:59:44 Dec 20 11:59 am Dec 20 8:59 am
too low 12/20/2018 14:58:08 Dec 20 09:58 am Dec 20 6:58 am
too low 12/20/2018 13:58:24 Dec 20 08:58 am Dec 20 5:58 am
too low 12/20/2018 12:58:40 Dec 20 07:58 am Dec 20 4:58 am
too low 12/20/2018 10:59:12 Dec 20 05:59 am Dec 20 2:59 am
too low 12/20/2018 09:59:28 Dec 20 04:59 am Dec 20 1:59 am
too low 12/20/2018 08:00:00 Dec 20 03:00 am Dec 20 12:00 am
too low 12/20/2018 02:59:12 Dec 19 09:59 pm Dec 19 6:59 pm
too low 12/20/2018 01:59:28 Dec 19 08:59 pm Dec 19 5:59 pm
too low 12/20/2018 00:59:44 Dec 19 07:59 pm Dec 19 4:59 pm
too low 12/20/2018 00:00:00 Dec 19 07:00 pm Dec 19 4:00 pm
too low 12/19/2018 22:58:08 Dec 19 05:58 pm Dec 19 2:58 pm
too low 12/19/2018 21:58:24 Dec 19 04:58 pm Dec 19 1:58 pm
too low 12/19/2018 19:58:56 Dec 19 02:58 pm Dec 19 11:58 am
too low 12/19/2018 17:59:28 Dec 19 12:59 pm Dec 19 9:59 am
too low 12/19/2018 16:59:44 Dec 19 11:59 am Dec 19 8:59 am
too low 12/19/2018 14:58:08 Dec 19 09:58 am Dec 19 6:58 am
too low 12/19/2018 12:58:40 Dec 19 07:58 am Dec 19 4:58 am
too low 12/19/2018 11:58:56 Dec 19 06:58 am Dec 19 3:58 am
too low 12/19/2018 09:59:28 Dec 19 04:59 am Dec 19 1:59 am
too low 12/19/2018 08:59:44 Dec 19 03:59 am Dec 19 12:59 am
too low 12/19/2018 02:59:12 Dec 18 09:59 pm Dec 18 6:59 pm
too low 12/19/2018 01:59:28 Dec 18 08:59 pm Dec 18 5:59 pm
too low 12/19/2018 00:59:44 Dec 18 07:59 pm Dec 18 4:59 pm
too low 12/19/2018 00:00:00 Dec 18 07:00 pm Dec 18 4:00 pm
too low 12/18/2018 21:58:24 Dec 18 04:58 pm Dec 18 1:58 pm
too low 12/18/2018 20:58:40 Dec 18 03:58 pm Dec 18 12:58 pm
too low 12/18/2018 19:58:56 Dec 18 02:58 pm Dec 18 11:58 am
too low 12/18/2018 17:59:28 Dec 18 12:59 pm Dec 18 9:59 am
too low 12/18/2018 16:59:44 Dec 18 11:59 am Dec 18 8:59 am
too low 12/18/2018 16:00:00 Dec 18 11:00 am Dec 18 8:00 am
too low 12/18/2018 14:58:08 Dec 18 09:58 am Dec 18 6:58 am
too low 12/18/2018 13:58:24 Dec 18 08:58 am Dec 18 5:58 am
too low 12/18/2018 12:58:40 Dec 18 07:58 am Dec 18 4:58 am
too low 12/18/2018 11:58:56 Dec 18 06:58 am Dec 18 3:58 am
too low 12/18/2018 10:59:12 Dec 18 05:59 am Dec 18 2:59 am
too low 12/18/2018 09:59:28 Dec 18 04:59 am Dec 18 1:59 am
too low 12/18/2018 08:59:44 Dec 18 03:59 am Dec 18 12:59 am
too low 12/18/2018 08:00:00 Dec 18 03:00 am Dec 18 12:00 am
too low 12/18/2018 02:59:12 Dec 17 09:59 pm Dec 17 6:59 pm
too low 12/18/2018 01:59:28 Dec 17 08:59 pm Dec 17 5:59 pm
too low 12/18/2018 00:59:44 Dec 17 07:59 pm Dec 17 4:59 pm
too low 12/18/2018 00:00:00 Dec 17 07:00 pm Dec 17 4:00 pm
too low 12/17/2018 22:58:08 Dec 17 05:58 pm Dec 17 2:58 pm
too low 12/17/2018 20:58:40 Dec 17 03:58 pm Dec 17 12:58 pm
too low 12/17/2018 19:58:56 Dec 17 02:58 pm Dec 17 11:58 am
too low 12/17/2018 18:59:12 Dec 17 01:59 pm Dec 17 10:59 am
too low 12/17/2018 17:59:28 Dec 17 12:59 pm Dec 17 9:59 am
too low 12/17/2018 16:00:00 Dec 17 11:00 am Dec 17 8:00 am
too low 12/17/2018 14:58:08 Dec 17 09:58 am Dec 17 6:58 am
too low 12/17/2018 13:58:24 Dec 17 08:58 am Dec 17 5:58 am
too low 12/17/2018 12:58:40 Dec 17 07:58 am Dec 17 4:58 am
too low 12/17/2018 11:58:56 Dec 17 06:58 am Dec 17 3:58 am
too low 12/17/2018 10:59:12 Dec 17 05:59 am Dec 17 2:59 am
too low 12/17/2018 09:59:28 Dec 17 04:59 am Dec 17 1:59 am
too low 12/17/2018 08:59:44 Dec 17 03:59 am Dec 17 12:59 am
too low 12/17/2018 08:00:00 Dec 17 03:00 am Dec 17 12:00 am

Report - Reports of Related Gauges

Reports give the public a chance to report on river conditions throughout the country as well as log the history of a river.

Reports

No Reports Filed

Linked Reaches

Click a heading to sort. Hover over a heading for help.
River Name/Section Class Level running? Updated
Pit [CA] 6) Pit 5: Pit 5 Dam to Pit 5 Powerhouse III+(V) 498 cfs
0 cfs/hr
L8-
Below Recom.
09h42m